Location: *
(46.8923°S, 172.7723°W)
Time: 12:07:43
(UTC+00:00)

Daily predictions for brighter satellites

Satellite Brightness Start Highest point End
(mag) Time Altitude Azimuth Time Altitude Azimuth Time Altitude Azimuth
SL-16 R/B 4.2 15:04:29 25° E 15:04:29 25° E 15:08:14 10° SE
NOSS 3-1 (A) 4.4 15:29:00 60° NNE 15:30:05 65° ENE 15:37:47 10° SE
Lacrosse 4 Rocket 3.9 15:36:41 22° E 15:36:41 22° E 15:38:54 10° ENE
ATLAS 3B R/B 4.2 15:38:42 25° S 15:38:42 25° S 15:43:07 10° SSE
CENTAUR R/B 4.3 15:41:54 18° S 15:42:07 18° S 15:46:02 10° SE
ATLAS 5 CENTAUR R/B 3.2 15:48:28 45° N 15:50:24 57° ENE 15:57:03 10° SE
Cosmos 1932 4.5 15:56:22 81° ESE 15:56:22 81° ESE 16:02:48 10° NE
Cosmos 2297 3.9 16:07:27 65° NNE 16:07:27 65° NNE 16:12:14 10° NNE
Lacrosse 5 rocket 4.3 16:11:03 10° NNE 16:11:03 10° NNE 16:11:06 10° NNE
BREEZE-M TANK 3.5 16:08:48 76° NW 16:09:07 79° N 16:22:18 10° E
Cosmos 2369 Rocket 3.0 16:11:51 29° S 16:14:23 48° ESE 16:19:51 10° NE
SJ 16-02 2.1 16:18:21 49° SE 16:18:43 50° ESE 16:23:02 10° NE
USA 307 4.4 16:21:52 30° SSE 16:21:52 30° SSE 16:25:02 10° ESE
USA 81 4.2 16:16:56 10° S 16:22:19 73° E 16:27:37 10° NNE
Cosmos 2237 Rocket 3.5 16:25:39 26° S 16:25:39 26° S 16:28:40 10° SSE
Cosmos 1346 Rocket 4.1 16:22:28 10° NNE 16:26:12 40° E 16:30:00 10° SSE
Okean O Rocket 3.9 16:27:00 10° ENE 16:30:32 24° ESE 16:34:05 10° S
Cosmos 1943 Rocket 2.0 16:32:36 67° W 16:32:58 70° WNW 16:38:31 10° NNE
NOAA 6 4.3 16:28:37 10° NNE 16:33:46 70° ESE 16:39:00 10° S
USA 305 4.0 16:37:38 35° S 16:37:45 35° S 16:41:46 10° ESE
USA 308 4.0 16:38:05 34° S 16:38:08 34° S 16:42:08 10° ESE
USA 234 3.2 16:32:03 10° SE 16:38:38 70° SSW 16:40:44 45° W
NOAA 12 4.1 16:34:31 10° NNE 16:39:48 84° ESE 16:45:09 10° SSW
PSLV R/B 4.2 16:38:48 10° NNE 16:42:45 65° ESE 16:44:46 28° S
Cosmos 389 Rocket 3.8 16:44:31 31° NNE 16:44:31 31° NNE 16:46:27 10° NNE
NOAA 11 4.1 16:37:43 10° NNE 16:43:16 81° WNW 16:48:53 10° SSW
Cosmos 1536 Rocket 3.7 16:39:40 10° N 16:44:11 76° E 16:48:46 10° SSE
SL-16 R/B 2.2 16:46:25 50° W 16:47:20 56° WSW 16:53:01 10° SSE
CZ-2C R/B 3.5 16:42:32 10° NNE 16:47:54 68° ESE 16:53:38 10° S
Meteor 2-10 Rocket 4.1 16:42:43 10° S 16:48:20 62° ESE 16:53:38 10° NNE
Cosmos 1802 Rocket 4.0 16:42:43 10° S 16:48:59 84° E 16:55:12 10° N
Cosmos 2061 Rocket 4.4 16:42:45 10° S 16:49:12 68° E 16:55:37 10° NNE
NOSS 3-1 (C) 4.4 16:47:07 37° WSW 16:49:25 45° SW 16:56:29 10° SE
Cosmos 2219 Rocket 4.4 16:55:05 10° SSW 16:55:05 10° SSW 16:55:06 10° SSW
Cosmos 2100 Rocket 4.0 16:49:02 10° SSW 16:55:24 68° W 17:01:45 10° N
USA 229 DEB 4.1 16:56:02 34° W 16:59:08 52° SW 17:06:12 10° SE
USA 229 4.1 16:56:05 34° W 16:59:13 52° SW 17:06:17 10° SE
Cosmos 2084 Rocket 4.0 16:55:36 16° NNW 16:59:21 67° NE 17:04:07 10° SE
USA 306 3.9 17:00:53 32° SSW 17:02:02 39° SSE 17:06:05 10° E
Cosmos 1725 Rocket 4.1 16:58:34 10° S 17:04:55 81° E 17:11:09 10° N
SMAP 3.0 17:00:50 10° N 17:05:31 72° WNW 17:10:14 10° SSW
Cosmos 1300 3.5 17:06:55 35° NW 17:06:55 35° NW 17:09:32 10° NNW
Cosmos 1000 Rocket 4.4 17:00:03 10° NNW 17:06:18 68° W 17:12:36 10° S
deb Chang Zheng 4 3.5 17:03:41 10° N 17:07:58 64° WNW 17:10:35 23° SSW
AQUARIUS 4.1 17:03:39 10° N 17:08:11 78° WNW 17:12:47 10° SSW
ISS -3.8 17:08:03 62° NW 17:08:34 83° NNE 17:12:02 10° ESE
SL-19 R/B 4.4 17:04:29 10° SSE 17:10:47 87° WSW 17:16:34 10° NNW
Cosmos 2228 3.2 17:09:08 10° S 17:13:36 75° E 17:18:02 10° NNE
Lacrosse 4 Rocket 2.0 17:13:01 38° W 17:13:47 42° WNW 17:18:00 10° N
CZ-4B DEB 4.2 17:08:27 10° N 17:13:56 64° WNW 17:19:30 10° SSW
USA 276 4.3 17:15:29 10° NNW 17:18:08 24° NE 17:20:50 10° E
CZ-4C R/B 4.3 17:11:46 10° N 17:19:22 40° ENE 17:26:01 10° SE
NOSS 3-1 (A) 4.4 17:16:30 23° W 17:21:32 45° SW 17:28:37 10° SE
Radarsat Rocket 4.1 17:15:57 10° N 17:21:57 61° WNW 17:28:42 10° SSW
MOS 1 Rocket 3.6 17:19:40 10° S 17:23:45 38° WSW 17:27:55 10° NW
CZ-2D R/B 3.3 17:20:56 10° NNE 17:24:46 78° ESE 17:28:40 10° S
Cosmos 1441 Rocket 4.1 17:21:38 10° N 17:25:33 54° E 17:29:30 10° SSE
Cosmos 1943 3.3 17:20:49 10° NNW 17:26:30 83° ENE 17:32:14 10° SSE
Cosmos 2233 Rocket 4.1 17:20:21 10° S 17:26:38 78° E 17:32:48 10° NNE
ARGOS 4.3 17:24:49 10° NE 17:29:53 43° ESE 17:35:02 10° S
H-2A R/B 2.5 17:25:05 10° NNE 17:30:05 64° ESE 17:35:17 10° S
Cosmos 1939 Rocket 3.0 17:26:41 10° N 17:30:32 48° W 17:34:04 12° SSW
ATLAS 3B R/B 4.4 17:25:57 12° SW 17:30:33 20° S 17:35:36 10° SE
CZ-4 R/B 3.0 17:30:22 10° NE 17:33:54 33° ESE 17:37:27 10° S
CENTAUR R/B 3.4 17:29:04 10° SSW 17:34:36 37° SE 17:39:31 10° ENE
ATLAS 5 CENTAUR R/B 3.0 17:30:04 17° WNW 17:35:28 45° SW 17:41:45 10° SSE
Cosmos 1937 Rocket 3.9 17:31:55 10° SSW 17:37:11 64° ESE 17:42:26 10° NNE
ERBS 4.5 17:36:07 13° SSW 17:37:24 16° S 17:39:34 10° SE
EXPRESS MD2 3.5 17:35:41 23° WNW 17:37:46 82° SSW 17:44:05 10° ESE
Cosmos 1606 Rocket 3.5 17:33:24 10° SSW 17:37:59 77° W 17:42:30 10° N
Cosmos 1656 Rocket 3.7 17:34:51 11° SSW 17:40:08 61° WNW 17:45:37 10° N
CZ-4C R/B 3.0 17:37:21 10° SSE 17:40:57 83° WSW 17:44:35 10° NNW
Genesis I 3.2 17:40:49 21° SW 17:43:06 55° WNW 17:46:44 10° NNE
CZ-2C R/B 3.9 17:40:51 10° SSE 17:46:16 47° E 17:51:42 10° N
SME Rocket 3.7 17:42:37 10° SSE 17:46:57 78° ENE 17:53:01 10° NNW
YAOGAN 1 3.6 17:45:18 10° NE 17:49:29 47° ESE 17:53:45 10° S
SKYMED 2 3.6 17:45:40 10° SSE 17:50:08 89° ENE 17:54:32 10° NNW
H-2A R/B 2.9 17:46:34 10° SSE 17:50:50 54° E 17:54:58 10° N
USA 238 DEB 4.4 17:44:13 10° SW 17:51:03 50° SE 17:57:28 10° ENE
USA 238 4.4 17:44:20 10° SW 17:51:10 50° SE 17:57:35 10° ENE
Cosmos 468 Rocket 3.9 17:46:22 10° NNW 17:51:33 80° WSW 17:56:46 10° SSE
Meteor 1-24 Rocket 4.1 17:49:38 10° NW 17:54:42 38° WSW 17:59:44 10° S
CZ-4B R/B 3.4 17:50:52 10° N 17:56:14 51° W 18:01:46 10° SSW
SJ 16-02 2.8 17:55:23 16° WSW 17:56:53 18° W 17:59:55 10° NW
Cosmos 2369 Rocket 3.0 17:53:40 12° SW 17:58:10 30° WNW 18:03:02 10° NNW
USA 307 3.2 17:57:57 14° SW 18:01:39 63° SSE 18:05:57 10° ENE
Cosmos 1346 Rocket 4.2 17:59:55 10° WNW 18:02:45 19° WSW 18:05:38 10° SSW
Meteor 2-5 Rocket 4.5 17:57:53 10° NW 18:02:45 29° WSW 18:07:37 10° S
Cosmos 990 Rocket 4.4 17:59:38 10° SSW 18:04:42 45° WNW 18:09:43 10° N
Cosmos 1455 2.5 18:02:14 10° SSW 18:06:03 47° W 18:09:48 10° NNW
Cosmos 1892 Rocket 3.5 18:02:14 10° NNW 18:06:36 69° W 18:11:05 10° S
Okean O Rocket 2.1 18:02:27 10° N 18:06:40 41° W 18:10:54 10° SSW
Cosmos 1184 Rocket 4.0 18:04:36 10° NW 18:07:17 23° WSW 18:10:01 10° SSW
BREEZE-M DEB (TANK) 3.9 18:09:44 10° W 18:13:11 71° S 18:24:33 10° E
Cosmos 1603 4.0 18:09:02 10° NW 18:14:34 46° SW 18:20:10 10° SSE
Cosmos 1943 Rocket 4.0 18:14:55 10° W 18:15:35 10° W 18:16:16 10° W
USA 290 2.7 18:14:07 10° NW 18:17:15 39° WSW 18:20:26 10° S
USA 305 3.0 18:13:43 10° WSW 18:18:08 82° SSE 18:22:31 10° ENE
USA 308 3.0 18:14:14 10° WSW 18:18:36 77° SSE 18:22:57 10° ENE
OBJECT-B 3.5 18:17:03 10° ENE 18:19:26 19° ESE 18:21:50 10° SSE
USA 234 3.9 18:15:01 10° SE 18:21:04 40° S 18:27:06 10° WSW
CZ-4B R/B 1.9 18:19:07 10° SSE 18:22:12 59° E 18:25:15 10° N
Okean 1-7 Rocket 3.7 18:18:15 10° N 18:22:52 84° W 18:27:31 10° S
H-2A R/B 3.3 18:19:25 10° NNW 18:23:32 37° W 18:27:47 10° SSW
Cosmos 841 Rocket 3.5 18:22:32 10° NNW 18:27:50 82° WSW 18:33:11 10° SSE
CZ-2C R/B 4.5 18:24:26 10° NW 18:28:20 20° W 18:32:24 10° SW
USA 281 3.2 18:22:29 10° SSE 18:29:05 69° WSW 18:35:38 10° NW
Feng Yun 1-1 Rocket 4.5 18:26:54 10° N 18:32:10 51° W 18:37:33 10° SSW
